Miscellaneous Local Product
Issued by NWS North Platte, NE

Home | Current Version | Previous Version | Graphics & Text | Print | Product List | Glossary On
Versions: 1 2 3 4 5 6 7 8 9 10 11 12 13 14 15 16 17 18 19 20 21 22 23 24 25 26 27 28 29 30 31 32 33 34 35 36 37 38 39 40 41 42 43 44 45 46 47 48 49 50
000
AXUS43 KLBF 220110
MISLBF


WESTERN AND NORTH CENTRAL NEBRASKA HOURLY WEATHER ROUNDUP
NATIONAL WEATHER SERVICE NORTH PLATTE NE
800 PM CDT THU MAY 21 2015

***STATIONS NOT REPORTING VARIABLES SUCH AS SKY/WEATHER OR
PRESSURE ARE PROVIDED BY THE NEBRASKA DEPARTMENT OF
ROADS...RAWS...AND APRS NETWORKS...AND ARE NOT UNDER
NATIONAL WEATHER SERVICE QUALITY CONTROL***

...OBSERVATIONS IN AND NEAR THE EASTERN PANHANDLE OF NEBRASKA...

CITY           SKY/WX    TMP DP  RH WIND       PRES   REMARKS
PINE RIDGE     CLOUDY    58  41  53 SE7       30.14F
CHADRON        CLOUDY    57  45  64 S8        30.12F
ALLIANCE       CLOUDY    55  44  66 SE10      30.13F
SIDNEY         CLOUDY    54  43  66 SE14      30.15S
WHITECLAY        N/A     57  42  57 SE6         N/A
BIG SPRINGS      N/A     57  47  69 SE13        N/A
$$

...OBSERVATIONS IN NORTH CENTRAL NEBRASKA...

CITY           SKY/WX    TMP DP  RH WIND       PRES   REMARKS
VALENTINE      CLEAR     64  28  25 SE9       30.15F
THEDFORD       CLEAR     63  38  40 SE8       30.17S
AINSWORTH      CLEAR     62  33  32 S6        30.16F
O`NEILL        CLEAR     66  39  37 CALM      30.17S
ORD            CLEAR     63  32  31 S7        30.16F
BROKEN BOW     CLEAR     62  36  37 S9        30.17F
BROWNLEE         N/A     65  23  20 SE6         N/A
BREWSTER         N/A     65  34  31 S6          N/A
ROSE             N/A     67  41  39 CALM        N/A
NEWPORT          N/A     64  39  40 S6          N/A
COMSTOCK         N/A     65  43  44 S3          N/A
$$

...OBSERVATIONS IN SOUTHWEST NEBRASKA AND FAR NORTHEAST COLORADO...

CITY           SKY/WX    TMP DP  RH WIND       PRES   REMARKS
WRAY           CLOUDY    56  44  63 SE15      30.15F
IMPERIAL       CLOUDY    57  43  59 SE10      30.17S
OGALLALA       CLOUDY    57  43  58 SE7       30.17S
NORTH PLATTE   MOCLDY    59  42  53 S7        30.17S
MCCOOK         MOCLDY    60  41  49 SE8       30.17S
LEXINGTON      PTCLDY    59  41  51 S7        30.18S
PAXTON           N/A     58  46  65 SE7         N/A
GOTHENBURG       N/A     60  39  46 SE3         N/A
CALLAWAY         N/A     60  45  57 S7          N/A
$$

...NORTH PLATTE AREA...

CITY           SKY/WX    TMP DP  RH WIND       PRES   REMARKS
AIRPORT        MOCLDY    59  42  53 S7        30.17S
$$

...SOME WEATHER OBSERVATIONS FROM AROUND THE REGION...

CITY           SKY/WX    TMP DP  RH WIND       PRES   REMARKS
DENVER         CLOUDY    51  43  74 NW13      30.09F
LARAMIE        CLOUDY    49  45  86 S14       30.08F
CHEYENNE       CLOUDY    50  42  74 SE13      30.11F
SCOTTSBLUFF    CLOUDY    55  44  66 SE14      30.11F
RAPID CITY     CLOUDY    60  39  45 S12       30.12F
PIERRE         SUNNY     68  37  32 SE6       30.11F
WINNER         FAIR      68  31  25 S8        30.15S
SIOUX FALLS    PTCLDY    67  38  34 NW8       30.10S
OMAHA          PTCLDY    70  39  32 W6        30.14S
GRAND ISLAND   CLEAR     63  38  39 SW5       30.19S
KANSAS CITY    PTCLDY    64  46  52 W5        30.19S
WICHITA        MOCLDY    61  44  53 SE8       30.20R
HAYS           CLOUDY    59  41  51 S9        30.20R
LIBERAL        CLOUDY    57  45  62 SE5       30.19F
GOODLAND       CLOUDY    54  44  69 S15       30.17S
$$



USA.gov is the U.S. government's official web portal to all federal, state and local government web resources and services.